COSMOS 2251 DEB, 34874

Orbit data source: Space-Track

COSMOS 2251 DEB, 34874 is space debris in LEO originally from a launch on Wed, 16 Jun 1993 UTC launched from the Plesetsk Missile And Space Complex (PKMTR). The debris from Iridium 33, an American commercial communications satellite, has been tracked extensively since its accidental collision with the defunct Russian satellite Cosmos 2251 in 2009. This event, occurring at high speed in low Earth orbit (LEO), generated thousands of pieces of space debris, significantly increasing the risk of further collisions. The Iridium 33 debris cloud has impacted space traffic management and orbital debris mitigation strategies, making it a subject of ongoing study in space situational awareness.

Loading next visibility...
Identifier
34874, 1993-036ACM
Orbit
LEO
Country
Flag of CISCIS
Related business
Manufacturer
Unknown
Mission
Spacecraft
Bus & Motor
Unknown
Mass
Unknown
Launch date (UTC)
1993-06-16 (32 years ago)
Launch vehicle
Unknown
Launch site
Plesetsk Missile And Space Complex (PKMTR)
Object type
Payload
Rocket body
Debris
Shape & HBR
Unknown shape, 0.1 m
Radar Cross Section
Small (<0.1 m²)

Expand to show TLE details & history
Last TLE update: 19 hours ago

TLE from 19 hours ago
0 COSMOS 2251 DEB
1 34874U 93036ACM 25299.37622345  .00002527  00000-0  86557-3 0  9996
2 34874  74.0384 160.7210 0053992 198.9531 341.7452 14.35909763863645
Epoch: 2025-10-26T09:01Z
TLE epoch observation values (Epoch: 2025-10-26T09:01:45.706Z)
Latitude
-0.59857°
Longitude
170.45754°
Altitude
738.088 km
Speed
7.505 km/s
True Right ascension
22h 43m 33s
True Declination
0° 35' 42"
Sunlit
Object was in full shadow at epoch
Visualization orbit readout
Latitude
Unknown
Longitude
Unknown
Altitude
Unknown
Speed
Unknown
Apparent Right ascension
Unknown
Apparent Declination
Unknown
Sunlit
N/A
Visualization observer readout
Local Sidereal Time
23:38:08
Azimuth
Unknown
Elevation
Unknown
Doppler factor
Unknown
Orbital elements
Apogee altitude
808.261 km
Perigee altitude
731.076 km
Semi-major axis
7,147.805 km
Eccentricity
0.0054
Inclination
74.0384°
RAAN
160.721°
Arg. of periapsis
198.9531°
True anomaly
341.55015°
Mean anomaly
341.7452°
Eccentric anomaly
341.6478°
Mean motion
3.59157 °/min
Orbital period
100.23 mins
BSTAR
0.00086557
Loading maneuver chart data...
Computing Atmospheric mass density...

Documentation

Showing up to 5 results
|